Time,TemperatureF,DewpointF,PressureIn,WindDirection,WindDirectionDegrees,WindSpeedMPH,WindSpeedGustMPH,Humidity,HourlyPrecipIn,Conditions,Clouds,dailyrainin,SoftwareType,DateUTC
2013-01-29 00:03:00,45.0,43.0,-100.00,South,175,2.0,4.0,92,0.00,,,-99.99,,2013-01-29 05:03:00,
2013-01-29 00:12:00,46.0,44.0,-100.00,SSW,200,2.0,4.0,92,0.00,,,-99.99,,2013-01-29 05:12:00,
2013-01-29 00:21:00,46.0,44.0,-100.00,SSW,195,2.0,4.0,92,0.00,,,-99.99,,2013-01-29 05:21:00,
2013-01-29 00:32:00,46.0,44.0,-100.00,SSW,205,2.0,3.0,92,0.00,,,-99.99,,2013-01-29 05:32:00,
2013-01-29 00:42:00,46.0,44.0,-100.00,SSW,195,2.0,4.0,92,0.00,,,-99.99,,2013-01-29 05:42:00,
2013-01-29 00:52:00,46.0,44.0,-100.00,SSW,195,2.0,4.0,92,0.00,,,-99.99,,2013-01-29 05:52:00,
2013-01-29 01:02:00,46.0,44.0,-100.00,SSW,200,4.0,6.0,92,0.00,,,-99.99,,2013-01-29 06:02:00,
2013-01-29 01:11:00,46.0,44.0,-100.00,South,190,2.0,6.0,92,0.00,,,-99.99,,2013-01-29 06:11:00,
2013-01-29 01:21:00,46.0,44.0,-100.00,SW,220,2.0,5.0,93,0.00,,,-99.99,,2013-01-29 06:21:00,
2013-01-29 01:32:00,46.0,44.0,-100.00,SW,215,2.0,6.0,93,0.00,,,-99.99,,2013-01-29 06:32:00,
2013-01-29 01:42:00,46.0,44.0,-100.00,SW,215,3.0,4.0,93,0.00,,,-99.99,,2013-01-29 06:42:00,
2013-01-29 01:52:00,46.0,44.0,-100.00,SW,225,2.0,6.0,93,0.00,,,-99.99,,2013-01-29 06:52:00,
2013-01-29 02:02:00,46.0,44.0,-100.00,SW,220,2.0,5.0,93,0.00,,,-99.99,,2013-01-29 07:02:00,
2013-01-29 02:11:00,46.0,44.0,-100.00,SW,215,2.0,4.0,93,0.00,,,-99.99,,2013-01-29 07:11:00,
2013-01-29 02:21:00,46.0,44.0,-100.00,NNW,335,3.0,4.0,92,0.00,,,-99.99,,2013-01-29 07:21:00,
2013-01-29 02:32:00,44.0,42.0,-100.00,NNW,340,4.0,7.0,92,0.00,,,-99.99,,2013-01-29 07:32:00,
2013-01-29 02:42:00,42.0,40.0,-100.00,NNW,345,3.0,6.0,92,0.00,,,-99.99,,2013-01-29 07:42:00,
2013-01-29 02:52:00,42.0,40.0,-100.00,North,0,4.0,5.0,92,0.00,,,-99.99,,2013-01-29 07:52:00,
2013-01-29 03:02:00,41.0,39.0,-100.00,North,0,4.0,6.0,92,0.00,,,-99.99,,2013-01-29 08:02:00,
2013-01-29 03:11:00,41.0,39.0,-100.00,North,0,2.0,6.0,92,0.00,,,-99.99,,2013-01-29 08:11:00,
2013-01-29 03:21:00,41.0,39.0,-100.00,North,5,1.0,4.0,93,0.00,,,-99.99,,2013-01-29 08:21:00,
2013-01-29 03:32:00,40.0,39.0,-100.00,NE,45,1.0,2.0,93,0.00,,,-99.99,,2013-01-29 08:32:00,
2013-01-29 03:42:00,40.0,38.0,-100.00,NE,35,1.0,2.0,93,0.00,,,-99.99,,2013-01-29 08:42:00,
2013-01-29 03:52:00,40.0,38.0,-100.00,NE,50,1.0,3.0,93,0.00,,,-99.99,,2013-01-29 08:52:00,
2013-01-29 04:02:00,40.0,38.0,-100.00,ENE,70,0.0,1.0,93,0.00,,,-99.99,,2013-01-29 09:02:00,
2013-01-29 04:11:00,40.0,38.0,-100.00,SE,130,0.0,0.0,93,0.00,,,-99.99,,2013-01-29 09:11:00,
2013-01-29 04:21:00,40.0,38.0,-100.00,SSW,195,0.0,0.0,93,0.00,,,-99.99,,2013-01-29 09:21:00,
2013-01-29 04:32:00,40.0,38.0,-100.00,ENE,70,0.0,1.0,93,0.00,,,-99.99,,2013-01-29 09:32:00,
2013-01-29 04:42:00,40.0,38.0,-100.00,NE,50,0.0,0.0,93,0.00,,,-99.99,,2013-01-29 09:42:00,
2013-01-29 04:51:00,40.0,38.0,-100.00,SW,230,0.0,0.0,93,0.00,,,-99.99,,2013-01-29 09:51:00,
2013-01-29 05:01:00,40.0,38.0,-100.00,WSW,240,0.0,2.0,93,0.00,,,-99.99,,2013-01-29 10:01:00,
2013-01-29 05:11:00,40.0,38.0,-100.00,SW,225,0.0,0.0,93,0.00,,,-99.99,,2013-01-29 10:11:00,
2013-01-29 05:21:00,40.0,38.0,-100.00,SW,230,0.0,0.0,93,0.00,,,-99.99,,2013-01-29 10:21:00,
2013-01-29 05:32:00,40.0,38.0,-100.00,ENE,60,0.0,0.0,93,0.00,,,-99.99,,2013-01-29 10:32:00,
2013-01-29 05:41:00,40.0,38.0,-100.00,SW,220,0.0,0.0,93,0.00,,,-99.99,,2013-01-29 10:41:00,
2013-01-29 05:52:00,40.0,38.0,-100.00,North,0,0.0,0.0,93,0.00,,,-99.99,,2013-01-29 10:52:00,
2013-01-29 06:02:00,40.0,38.0,-100.00,East,90,0.0,2.0,93,0.00,,,-99.99,,2013-01-29 11:02:00,
2013-01-29 06:11:00,40.0,38.0,-100.00,ENE,75,1.0,3.0,93,0.00,,,-99.99,,2013-01-29 11:11:00,
2013-01-29 06:22:00,40.0,38.0,-100.00,ENE,75,1.0,4.0,93,0.00,,,-99.99,,2013-01-29 11:22:00,
2013-01-29 06:32:00,40.0,38.0,-100.00,WSW,245,0.0,4.0,93,0.55,,,-99.99,,2013-01-29 11:32:00,
2013-01-29 06:42:00,40.0,38.0,-100.00,SW,225,1.0,2.0,93,0.55,,,-99.99,,2013-01-29 11:42:00,
2013-01-29 06:52:00,40.0,38.0,-100.00,South,175,0.0,1.0,93,0.55,,,-99.99,,2013-01-29 11:52:00,
2013-01-29 07:03:00,42.0,40.0,-100.00,SE,135,1.0,2.0,93,0.55,,,-99.99,,2013-01-29 12:03:00,
2013-01-29 07:12:00,42.0,41.0,-100.00,SE,145,0.0,3.0,93,0.55,,,-99.99,,2013-01-29 12:12:00,
2013-01-29 07:22:00,43.0,42.0,-100.00,SE,135,0.0,2.0,93,0.00,,,-99.99,,2013-01-29 12:22:00,
2013-01-29 07:33:00,44.0,42.0,-100.00,SSW,195,0.0,1.0,93,0.00,,,-99.99,,2013-01-29 12:33:00,
2013-01-29 07:43:00,44.0,43.0,-100.00,SSE,150,1.0,2.0,93,0.00,,,-99.99,,2013-01-29 12:43:00,
2013-01-29 07:52:00,45.0,43.0,-100.00,SSE,155,1.0,4.0,93,0.00,,,-99.99,,2013-01-29 12:52:00,
2013-01-29 08:02:00,45.0,44.0,-100.00,SE,145,1.0,3.0,93,0.00,,,-99.99,,2013-01-29 13:02:00,
2013-01-29 08:12:00,46.0,44.0,-100.00,SE,145,4.0,6.0,93,0.00,,,-99.99,,2013-01-29 13:12:00,
2013-01-29 08:22:00,46.0,44.0,-100.00,SSE,150,3.0,7.0,93,0.00,,,-99.99,,2013-01-29 13:22:00,
2013-01-29 08:32:00,47.0,45.0,-100.00,SSE,165,3.0,6.0,93,0.00,,,-99.99,,2013-01-29 13:32:00,
2013-01-29 08:42:00,47.0,46.0,-100.00,SE,145,4.0,6.0,93,0.00,,,-99.99,,2013-01-29 13:42:00,
2013-01-29 08:52:00,48.0,46.0,-100.00,SSE,155,4.0,8.0,93,0.55,,,-99.99,,2013-01-29 13:52:00,
2013-01-29 09:02:00,48.0,47.0,-100.00,South,175,4.0,9.0,93,0.00,,,-99.99,,2013-01-29 14:02:00,
2013-01-29 09:12:00,49.0,47.0,-100.00,South,170,7.0,10.0,93,0.00,,,-99.99,,2013-01-29 14:12:00,
2013-01-29 09:22:00,50.0,48.0,-100.00,SSE,155,7.0,11.0,93,0.00,,,-99.99,,2013-01-29 14:22:00,
2013-01-29 09:33:00,50.0,48.0,-100.00,SSE,165,9.0,13.0,93,0.00,,,-99.99,,2013-01-29 14:33:00,
2013-01-29 09:43:00,50.0,49.0,-100.00,South,175,7.0,14.0,93,0.00,,,-99.99,,2013-01-29 14:43:00,
2013-01-29 09:52:00,51.0,49.0,-100.00,South,170,10.0,15.0,93,0.00,,,-99.99,,2013-01-29 14:52:00,
2013-01-29 10:03:00,51.0,49.0,-100.00,South,175,11.0,16.0,93,0.00,,,-99.99,,2013-01-29 15:03:00,
2013-01-29 10:12:00,51.0,49.0,-100.00,South,175,10.0,15.0,93,0.00,,,-99.99,,2013-01-29 15:12:00,
2013-01-29 10:22:00,51.0,50.0,-100.00,South,180,9.0,16.0,93,0.00,,,-99.99,,2013-01-29 15:22:00,
2013-01-29 10:33:00,52.0,50.0,-100.00,SSE,165,11.0,16.0,93,0.00,,,-99.99,,2013-01-29 15:33:00,
2013-01-29 10:43:00,52.0,50.0,-100.00,South,185,12.0,16.0,92,0.00,,,-99.99,,2013-01-29 15:43:00,
2013-01-29 10:53:00,53.0,50.0,-100.00,South,180,10.0,19.0,91,0.00,,,-99.99,,2013-01-29 15:53:00,
2013-01-29 11:03:00,53.0,50.0,-100.00,South,175,12.0,17.0,90,0.00,,,-99.99,,2013-01-29 16:03:00,
2013-01-29 11:12:00,53.0,50.0,-100.00,South,180,13.0,18.0,89,0.00,,,-99.99,,2013-01-29 16:12:00,
2013-01-29 11:23:00,53.0,50.0,-100.00,South,180,9.0,16.0,88,0.00,,,-99.99,,2013-01-29 16:23:00,
2013-01-29 11:33:00,54.0,50.0,-100.00,South,180,10.0,16.0,87,0.00,,,-99.99,,2013-01-29 16:33:00,
2013-01-29 11:43:00,54.0,50.0,-100.00,South,170,7.0,12.0,86,0.00,,,-99.99,,2013-01-29 16:43:00,
2013-01-29 11:52:00,55.0,50.0,-100.00,South,170,6.0,12.0,85,0.00,,,-99.99,,2013-01-29 16:52:00,
2013-01-29 12:03:00,55.0,50.0,-100.00,South,170,6.0,12.0,85,0.00,,,-99.99,,2013-01-29 17:03:00,
2013-01-29 12:12:00,55.0,50.0,-100.00,South,170,10.0,16.0,84,0.00,,,-99.99,,2013-01-29 17:12:00,
2013-01-29 12:22:00,55.0,50.0,-100.00,South,190,9.0,14.0,83,0.00,,,-99.99,,2013-01-29 17:22:00,
2013-01-29 12:33:00,56.0,50.0,-100.00,South,180,6.0,15.0,82,0.00,,,-99.99,,2013-01-29 17:33:00,
2013-01-29 12:42:00,56.0,50.0,-100.00,South,190,6.0,10.0,82,0.00,,,-99.99,,2013-01-29 17:42:00,
2013-01-29 12:52:00,56.0,51.0,-100.00,South,175,7.0,12.0,82,0.00,,,-99.99,,2013-01-29 17:52:00,
2013-01-29 13:04:00,56.0,51.0,-100.00,South,170,8.0,14.0,81,0.00,,,-99.99,,2013-01-29 18:04:00,
2013-01-29 13:12:00,56.0,51.0,-100.00,South,180,7.0,11.0,81,0.00,,,-99.99,,2013-01-29 18:12:00,
2013-01-29 13:22:00,56.0,51.0,-100.00,South,175,6.0,11.0,82,0.00,,,-99.99,,2013-01-29 18:22:00,
2013-01-29 13:33:00,56.0,51.0,-100.00,South,185,7.0,10.0,82,0.00,,,-99.99,,2013-01-29 18:33:00,
2013-01-29 13:42:00,56.0,51.0,-100.00,SSE,160,8.0,12.0,82,0.00,,,-99.99,,2013-01-29 18:42:00,
2013-01-29 13:52:00,56.0,51.0,-100.00,South,185,6.0,12.0,82,0.00,,,-99.99,,2013-01-29 18:52:00,
2013-01-29 14:03:00,56.0,51.0,-100.00,South,170,6.0,12.0,83,0.00,,,-99.99,,2013-01-29 19:03:00,
2013-01-29 14:12:00,56.0,51.0,-100.00,SSE,160,6.0,10.0,83,0.00,,,-99.99,,2013-01-29 19:12:00,
2013-01-29 14:22:00,56.0,52.0,-100.00,South,175,2.0,8.0,83,0.00,,,-99.99,,2013-01-29 19:22:00,
2013-01-29 14:32:00,56.0,52.0,-100.00,West,260,0.0,3.0,85,0.00,,,-99.99,,2013-01-29 19:32:00,
2013-01-29 14:42:00,56.0,52.0,-100.00,SE,145,0.0,4.0,86,0.00,,,-99.99,,2013-01-29 19:42:00,
2013-01-29 14:52:00,56.0,52.0,-100.00,SE,145,2.0,4.0,87,0.00,,,-99.99,,2013-01-29 19:52:00,
2013-01-29 15:03:00,56.0,52.0,-100.00,SE,130,2.0,4.0,87,0.00,,,-99.99,,2013-01-29 20:03:00,
2013-01-29 15:12:00,56.0,53.0,-100.00,SSE,150,3.0,5.0,87,0.00,,,-99.99,,2013-01-29 20:12:00,
2013-01-29 15:22:00,56.0,53.0,-100.00,South,180,4.0,7.0,88,0.00,,,-99.99,,2013-01-29 20:22:00,
2013-01-29 15:33:00,57.0,53.0,-100.00,South,175,6.0,9.0,87,0.00,,,-99.99,,2013-01-29 20:33:00,
2013-01-29 15:42:00,57.0,53.0,-100.00,SSE,155,7.0,13.0,86,0.00,,,-99.99,,2013-01-29 20:42:00,
2013-01-29 15:53:00,57.0,53.0,-100.00,SSE,165,7.0,12.0,87,0.00,,,-99.99,,2013-01-29 20:53:00,
2013-01-29 16:03:00,57.0,53.0,-100.00,South,180,7.0,14.0,87,0.55,,,-99.99,,2013-01-29 21:03:00,
2013-01-29 16:12:00,57.0,53.0,-100.00,South,175,7.0,12.0,87,0.00,,,-99.99,,2013-01-29 21:12:00,
2013-01-29 16:22:00,56.0,53.0,-100.00,South,175,9.0,16.0,87,0.00,,,-99.99,,2013-01-29 21:22:00,
2013-01-29 16:33:00,56.0,53.0,-100.00,South,175,9.0,16.0,86,0.00,,,-99.99,,2013-01-29 21:33:00,
2013-01-29 16:42:00,56.0,53.0,-100.00,South,170,7.0,11.0,87,0.55,,,-99.99,,2013-01-29 21:42:00,
2013-01-29 16:52:00,56.0,53.0,-100.00,SSE,155,8.0,12.0,88,0.00,,,-99.99,,2013-01-29 21:52:00,
2013-01-29 17:03:00,56.0,53.0,-100.00,SSE,165,6.0,9.0,88,0.00,,,-99.99,,2013-01-29 22:03:00,
2013-01-29 17:12:00,56.0,53.0,-100.00,SSE,155,3.0,7.0,88,0.00,,,-99.99,,2013-01-29 22:12:00,
2013-01-29 17:22:00,56.0,52.0,-100.00,SE,135,1.0,4.0,89,0.00,,,-99.99,,2013-01-29 22:22:00,
2013-01-29 17:33:00,56.0,52.0,-100.00,SE,135,1.0,3.0,89,0.00,,,-99.99,,2013-01-29 22:33:00,
2013-01-29 17:42:00,55.0,52.0,-100.00,ESE,110,0.0,3.0,89,0.00,,,-99.99,,2013-01-29 22:42:00,
2013-01-29 17:52:00,55.0,52.0,-100.00,East,100,0.0,4.0,89,0.00,,,-99.99,,2013-01-29 22:52:00,
2013-01-29 18:02:00,55.0,52.0,-100.00,ENE,75,0.0,2.0,89,0.00,,,-99.99,,2013-01-29 23:02:00,
2013-01-29 18:12:00,55.0,52.0,-100.00,SE,140,4.0,8.0,90,0.00,,,-99.99,,2013-01-29 23:12:00,
2013-01-29 18:22:00,55.0,52.0,-100.00,SE,145,3.0,6.0,89,0.00,,,-99.99,,2013-01-29 23:22:00,
2013-01-29 18:33:00,55.0,52.0,-100.00,SE,135,2.0,5.0,89,0.00,,,-99.99,,2013-01-29 23:33:00,
2013-01-29 18:42:00,55.0,52.0,-100.00,SE,135,0.0,5.0,89,0.00,,,-99.99,,2013-01-29 23:42:00,
2013-01-29 18:52:00,55.0,52.0,-100.00,SE,130,1.0,4.0,89,0.00,,,-99.99,,2013-01-29 23:52:00,
2013-01-29 19:03:00,55.0,52.0,-100.00,SE,135,1.0,4.0,89,0.00,,,-99.99,,2013-01-30 00:03:00,
2013-01-29 19:12:00,55.0,52.0,-100.00,East,100,2.0,5.0,89,0.00,,,-99.99,,2013-01-30 00:12:00,
2013-01-29 19:22:00,55.0,52.0,-100.00,SE,140,1.0,4.0,89,0.00,,,-99.99,,2013-01-30 00:22:00,
2013-01-29 19:32:00,55.0,51.0,-100.00,SE,145,2.0,5.0,88,0.00,,,-99.99,,2013-01-30 00:32:00,
2013-01-29 19:42:00,55.0,51.0,-100.00,SE,135,3.0,7.0,88,0.00,,,-99.99,,2013-01-30 00:42:00,
2013-01-29 19:52:00,54.0,51.0,-100.00,SE,145,5.0,7.0,88,0.00,,,-99.99,,2013-01-30 00:52:00,
2013-01-29 20:02:00,54.0,51.0,-100.00,SSE,150,6.0,7.0,88,0.00,,,-99.99,,2013-01-30 01:02:00,
2013-01-29 20:12:00,54.0,51.0,-100.00,SSE,150,4.0,7.0,88,0.00,,,-99.99,,2013-01-30 01:12:00,
2013-01-29 20:22:00,54.0,50.0,-100.00,SSE,160,2.0,6.0,88,0.00,,,-99.99,,2013-01-30 01:22:00,
2013-01-29 20:32:00,54.0,50.0,-100.00,SSE,165,2.0,4.0,87,0.00,,,-99.99,,2013-01-30 01:32:00,
2013-01-29 20:42:00,54.0,50.0,-100.00,SE,140,3.0,5.0,88,0.00,,,-99.99,,2013-01-30 01:42:00,
2013-01-29 20:52:00,54.0,50.0,-100.00,SSE,150,4.0,6.0,87,0.00,,,-99.99,,2013-01-30 01:52:00,
2013-01-29 21:02:00,54.0,50.0,-100.00,SE,145,4.0,9.0,86,0.00,,,-99.99,,2013-01-30 02:02:00,
2013-01-29 21:12:00,55.0,50.0,-100.00,SSE,160,5.0,8.0,83,0.00,,,-99.99,,2013-01-30 02:12:00,
2013-01-29 21:22:00,55.0,50.0,-100.00,SSE,150,4.0,8.0,82,0.00,,,-99.99,,2013-01-30 02:22:00,
2013-01-29 21:33:00,56.0,50.0,-100.00,SSE,150,7.0,11.0,80,0.00,,,-99.99,,2013-01-30 02:33:00,
2013-01-29 21:42:00,56.0,49.0,-100.00,SSE,150,6.0,11.0,77,0.00,,,-99.99,,2013-01-30 02:42:00,
2013-01-29 21:52:00,56.0,49.0,-100.00,SSE,150,7.0,9.0,76,0.00,,,-99.99,,2013-01-30 02:52:00,
2013-01-29 22:03:00,56.0,49.0,-100.00,SSE,155,7.0,11.0,75,0.00,,,-99.99,,2013-01-30 03:03:00,
2013-01-29 22:12:00,57.0,48.0,-100.00,SSE,160,9.0,12.0,72,0.00,,,-99.99,,2013-01-30 03:12:00,
2013-01-29 22:22:00,58.0,49.0,-100.00,SSE,160,9.0,13.0,71,0.00,,,-99.99,,2013-01-30 03:22:00,
2013-01-29 22:32:00,58.0,49.0,-100.00,SSE,155,9.0,17.0,70,0.00,,,-99.99,,2013-01-30 03:32:00,
2013-01-29 22:42:00,58.0,49.0,-100.00,SSE,160,9.0,15.0,69,0.00,,,-99.99,,2013-01-30 03:42:00,
2013-01-29 22:52:00,58.0,49.0,-100.00,SSE,160,9.0,16.0,70,0.00,,,-99.99,,2013-01-30 03:52:00,
2013-01-29 23:02:00,59.0,49.0,-100.00,SSE,155,11.0,17.0,69,0.00,,,-99.99,,2013-01-30 04:02:00,
2013-01-29 23:12:00,59.0,49.0,-100.00,SSE,165,8.0,16.0,69,0.00,,,-99.99,,2013-01-30 04:12:00,
2013-01-29 23:22:00,58.0,48.0,-100.00,SE,145,9.0,14.0,68,0.00,,,-99.99,,2013-01-30 04:22:00,
2013-01-29 23:32:00,59.0,49.0,-100.00,SSE,160,11.0,18.0,68,0.00,,,-99.99,,2013-01-30 04:32:00,
2013-01-29 23:41:00,59.0,49.0,-100.00,SSE,165,10.0,16.0,68,0.00,,,-99.99,,2013-01-30 04:41:00,
2013-01-29 23:52:00,59.0,49.0,-100.00,SSE,165,12.0,17.0,69,0.00,,,-99.99,,2013-01-30 04:52:00,